Hourly Data Report for October 10, 2013

All times are specified in Local Standard Time (LST). Add 1 hour to adjust for Daylight Saving Time where and when it is observed.

KITCHENER/WATERLOO
ONTARIO

43°27'39.000" N
80°22'43.000" W
321.60 m
6144239
71368
YKF

Download Data

Hourly Data (October 2013)
Hourly Data Report for October 10, 2013
Temp Definition
°C
Dew Point Temp Definition
°C
Rel Hum Definition
%
Wind Dir Definition
10's deg

Wind Spd Definition
km/h
Visibility Definition
km
Stn Press Definition
kPa
Hmdx Definition


Wind Chill Definition


Weather Definition


TIME
00:00 Legend Double Dagger 4.7 4.6 99   0 0.4 98.65     LegendNANA
01:00 Legend Double Dagger 4.8 4.7 99 31 4 0.8 98.63     LegendNANA
02:00 Legend Double Dagger 3.8 3.6 99   0 0.4 98.63     LegendNANA
03:00 Legend Double Dagger 4.0 3.9 99 34 5 0.6 98.61     LegendNANA
04:00 Legend Double Dagger 5.6 5.3 98   0 1.2 98.64     LegendNANA
05:00 Legend Double Dagger 7.0 6.7 98   0 0.2 98.66     LegendNANA
06:00 Legend Double Dagger 6.8 6.5 98 35 8 0.2 98.68     LegendNANA
07:00 Legend Double Dagger 6.1 5.8 98   0 0.0 98.69     LegendNANA
08:00 Legend Double Dagger 7.1 6.8 98   0 0.0 98.68     LegendNANA
09:00 Legend Double Dagger 8.6 8.3 98   0 0.0 98.67     LegendNANA
10:00 Legend Double Dagger 11.9 11.1 95   0 16.1 98.66     LegendNANA
11:00 Legend Double Dagger 16.2 10.4 68 LegendMM 4 16.1 98.61     LegendNANA
12:00 Legend Double Dagger 19.0 9.9 55 6 13 16.1 98.55     LegendNANA
13:00 Legend Double Dagger 20.3 6.0 39 11 17 16.1 98.47     LegendNANA
14:00 Legend Double Dagger 20.4 7.4 43 8 9 16.1 98.43     LegendNANA
15:00 Legend Double Dagger 20.7 7.2 41 12 9 16.1 98.41     LegendNANA
16:00 Legend Double Dagger 19.7 8.5 48 13 15 16.1 98.39     LegendNANA
17:00 Legend Double Dagger 17.2 8.4 56 11 15 16.1 98.40     LegendNANA
18:00 Legend Double Dagger 13.7 7.6 66 9 5 16.1 98.39     LegendNANA
19:00 Legend Double Dagger 9.6 7.3 85 7 5 16.1 98.37     LegendNANA
20:00 Legend Double Dagger 8.1 5.9 86 7 5 16.1 98.34     LegendNANA
21:00 Legend Double Dagger 8.3 6.2 87 9 8 16.1 98.38     LegendNANA
22:00 Legend Double Dagger 7.1 5.4 89 5 4 16.1 98.37     LegendNANA
23:00 Legend Double Dagger 5.7 5.1 96   0 9.7 98.34     LegendNANA

Notes on Data Quality.

Legend

  • E = Estimated
  • M = Missing
  • NA = Not Available
  • ‡ = Partner data that is not subject to review by the National Climate Archives
Date modified: